Regional Weather Roundup
Issued by NWS

Home | Current Version | Previous Version | Graphics & Text | Print | Product List | Glossary On
Versions: 1 2 3 4 5 6 7 8 9 10 11 12 13 14 15 16 17 18 19 20 21 22 23 24 25 26 27 28
000
ASUS45 KTFX 290410
RWRMT
MONTANA REGIONAL WEATHER ROUNDUP
NATIONAL WEATHER SERVICE GREAT FALLS MT
1000 PM MDT SAT MAY 28 2016

NOTE: "FAIR" INDICATES FEW OR NO CLOUDS BELOW 12000 FEET WITH NO
SIGNIFICANT WEATHER AND/OR OBSTRUCTIONS TO VISIBILITY.

MTZ001>007-043-290500-
WEST OF THE DIVIDE

CITY           SKY/WX    TMP DP  RH WIND       PRES   REMARKS
KALISPELL      CLEAR     50  36  58 CALM      30.04R
MISSOULA       CLEAR     51  35  54 MISG      30.05R
BUTTE          CLEAR     49  33  54 NE3       30.09R
MULLAN PASS    PTCLDY    41  30  65 SW5       30.09S
ANACONDA         N/A     45  36  70 SW6       30.08R
DEER LODGE       N/A     45  36  70 W6        30.08S
EUREKA           N/A     55  34  44 S6          N/A
HAMILTON         N/A     50  36  57 CALM      30.05R
LIBBY            N/A     48  37  66 CALM      30.04S
$$

MTZ008-052>055-290500-
SOUTHWEST MONTANA

CITY           SKY/WX    TMP DP  RH WIND       PRES   REMARKS
BOZEMAN        CLEAR     47  40  76 SE10      30.05R
DILLON         CLOUDY    50  38  63 E7        30.04R
W YELLOWSTONE  MOCLDY    39  36  87 CALM      30.17R
ENNIS          CLEAR     48  37  66 S10       30.12R
$$

MTZ009-010-012-014-046-048-049-054-290500-
EAST SLOPES AND CENTRAL MONTANA

CITY           SKY/WX    TMP DP  RH WIND       PRES   REMARKS
CUT BANK       CLEAR     47  30  51 W16       29.99R
GREAT FALLS    CLEAR     47  31  53 W9        30.02R
MALMSTROM AFB  CLEAR     47  34  61 SW9       30.02R
HELENA         CLEAR     52  33  48 CALM      30.03R
CHOTEAU          N/A     48  30  49 CALM      30.03R
$$

MTZ011-013-016-021-045-047-050-051-290500-
NORTH CENTRAL MONTANA

CITY           SKY/WX    TMP DP  RH WIND       PRES   REMARKS
HAVRE          CLEAR     48  39  71 SW9       29.96R
LEWISTOWN      CLEAR     48  37  65 S9        30.04R
N BAR RANCH      N/A     46  36  66 NW5       30.07R
CHINOOK          N/A     54  37  54 SW5       29.97R
$$

MTZ017>020-022>027-061-062-290500-
NORTHEAST MONTANA

CITY           SKY/WX    TMP DP  RH WIND       PRES   REMARKS
GLASGOW        CLEAR     56  38  50 SW6       29.96R
JORDAN           N/A     49  41  74 W5        30.00R
SIDNEY         CLEAR     54  46  76 NW6       29.96R
WOLF POINT     CLEAR     54  44  69 CALM      29.97R
PLENTYWOOD       N/A     57  46  67 N3        29.95R
POPLAR           N/A     57  46  67 CALM      29.97R
$$

MTZ028>42-056>058-290500-
SOUTHCENTRAL AND SOUTHEAST MONTANA

CITY           SKY/WX    TMP DP  RH WIND       PRES   REMARKS
BAKER          CLEAR     54  41  61 CALM      30.01R
BILLINGS       CLOUDY    59  39  47 CALM      30.04R
LIVINGSTON     CLEAR     48  42  80 SW7       30.04R
MILES CITY     CLOUDY    60  43  53 N7        30.00R
FORSYTH          N/A     63  41  45 NW5       30.00R
$$

REGIONAL REPORTS...DAKOTAS

CITY           SKY/WX    TMP DP  RH WIND       PRES   REMARKS
WILLISTON      CLEAR     50  48  93 CALM      29.95R
MINOT          CLOUDY    62  55  77 N5        29.93R
DICKINSON      CLEAR     49  47  93 W3        29.97R FOG
BEACH            N/A     50  46  87 CALM      30.03R
CROSBY           N/A     52  52 100 SW3       29.96S
WATFORD CITY     N/A     50  50 100 S5        29.96S
BISMARCK       CLEAR     57  56  96 W5        29.94R
GRAND FORKS    LGT RAIN  61  59  93 NW5       29.87R
FARGO          LGT RAIN  62  59  90 NW8       29.86R
BUFFALO SD       N/A     57  43  59 N12       29.95R
RAPID CITY     CLOUDY    54  48  80 NW8       30.02R
$$

REGIONAL REPORTS...WYOMING/IDAHO/WASHINGTON

CITY           SKY/WX    TMP DP  RH WIND       PRES   REMARKS
GILLETTE       CLEAR     44  40  85 CALM      30.06R
SHERIDAN       PTCLDY    52  46  80 S9        30.06R
BUFFALO WY       N/A     55  46  71 CALM      30.10R
CODY           CLEAR     52  41  66 NW6       30.08R
YELLOWSTONE LA   N/A     37  29  72 NW3       30.22R
IDAHO FALLS    CLEAR     56  31  38 S7        30.09R
SALMON         CLEAR     54  34  47 S3        30.00R
BOISE          CLEAR     63  31  30 NW6       30.00S
SPOKANE        MOCLDY    58  36  43 S7        30.01S
$$

REGIONAL REPORTS...ALBERTA

CITY           SKY/WX    TMP DP  RH WIND       PRES   REMARKS
EDMONTON       MOCLDY    50  41  71 NE5       29.86F
CALGARY        PTCLDY    55  28  35 W5        29.87R
LETHBRIDGE     PTCLDY    50  32  50 SW13      29.93R
MEDICINE HAT   CLEAR     54  39  58 W9        29.90R
$$

REGIONAL REPORTS...SASKATCHEWAN

CITY           SKY/WX    TMP DP  RH WIND       PRES   REMARKS
SWIFT CURRENT  PTCLDY    50  48  93 NW5       29.92R
REGINA         PTCLDY    48  48 100 SW8       29.92R
SASKATOON      MOCLDY    50  50 100 S5        29.88R
$$




USA.gov is the U.S. government's official web portal to all federal, state and local government web resources and services.